This is the latest recevied weather packets stored in our database for station/object KE6LRO. If no packets are shown the sender has not sent any weather packets the latest 10 day(s).
| Time | Temp. | Humidity | Pressure | Rain* | Wind** | Luminosity | Snow |
|---|---|---|---|---|---|---|---|
| 1777749714 | 21.11° C | 28% | 1020.9 hPa | 0 mm | - | 696 W/m² | - |
| 1777749411 | 20.56° C | 30% | 1020.9 hPa | 0 mm | - | 671 W/m² | - |
| 1777749109 | 21.67° C | 25% | 1021.1 hPa | 0 mm | - | 550 W/m² | - |
| 1777748806 | 20.56° C | 29% | 1021.1 hPa | 0 mm | - | 725 W/m² | - |
| 1777748499 | 21.67° C | 29% | 1021.2 hPa | 0 mm | - | 662 W/m² | - |
| 1777748198 | 21.67° C | 32% | 1021.4 hPa | 0 mm | - | 670 W/m² | - |
| 1777747895 | 21.11° C | 31% | 1021.1 hPa | 0 mm | - | 700 W/m² | - |
| 1777747591 | 21.11° C | 31% | 1021.5 hPa | 0 mm | - | 723 W/m² | - |
| 1777747287 | 21.11° C | 28% | 1021.4 hPa | 0 mm | - | 706 W/m² | - |
| 1777746983 | 21.11° C | 30% | 1021.4 hPa | 0 mm | - | 726 W/m² | - |
| 1777746680 | 20.56° C | 32% | 1021.7 hPa | 0 mm | - | 743 W/m² | - |
| 1777746375 | 20° C | 34% | 1021.6 hPa | 0 mm | - | 704 W/m² | - |
| 1777746071 | 20° C | 35% | 1021.8 hPa | 0 mm | - | 674 W/m² | - |
| 1777745769 | 19.44° C | 39% | 1021.8 hPa | 0 mm | - | 697 W/m² | - |
| 1777745468 | 18.89° C | 40% | 1021.8 hPa | 0 mm | - | 662 W/m² | - |
| 1777745164 | 18.89° C | 38% | 1022.1 hPa | 0 mm | - | 714 W/m² | - |
| 1777744856 | 18.89° C | 39% | 1022.1 hPa | 0 mm | - | 690 W/m² | - |
| 1777744555 | 17.78° C | 40% | 1022.2 hPa | 0 mm | - | 715 W/m² | - |
| 1777744251 | 18.33° C | 39% | 1022.4 hPa | 0 mm | - | 686 W/m² | - |
| 1777743949 | 17.78° C | 38% | 1022.3 hPa | 0 mm | - | 725 W/m² | - |
| 1777743645 | 16.67° C | 42% | 1022.3 hPa | 0 mm | - | 638 W/m² | - |
| 1777743342 | 16.67° C | 41% | 1022.4 hPa | 0 mm | - | 495 W/m² | - |
| 1777743040 | 16.67° C | 41% | 1022.2 hPa | 0 mm | - | 691 W/m² | - |
| 1777742737 | 17.78° C | 38% | 1022.5 hPa | 0 mm | - | 611 W/m² | - |
| 1777742433 | 17.22° C | 41% | 1022.4 hPa | 0 mm | - | 574 W/m² | - |
* Rain latest hour (hover to see other rain measurements)
** Current wind speed in m/s (hover to see current wind gust speed)